Princeton, MN

10:25 PM CST on November 19, 2019 (GMT -0600)
Princeton Municipal

Weather History for KPNM - August, 2019

Change the Weather History Date:

Monday, August 5, 2019

  Actual Average Record
Temperature  
Mean Temperature 75 °F -  
Max Temperature 86 °F 78 °F 96 °F (2001)
Min Temperature 64 °F 55 °F 48 °F (1999)
Cooling Degree Days 10    
Growing Degree Days 25 (Base 50)    
Moisture  
Dew Point 66 °F    
Average Humidity 79    
Maximum Humidity 100    
Minimum Humidity 51    
Precipitation  
Precipitation 0.00 in - - ()
Sea Level Pressure  
Sea Level Pressure 29.87 in    
Wind  
Wind Speed 2 mph (WNW)    
Max Wind Speed 15 mph    
Max Gust Speed 21 mph    
Visibility 8 miles    
Events Fog , Rain , Thunderstorm    
Averages and records for this station are not official NWS values.
T = Trace of Precipitation, MM = Missing Value Source: NWS Daily Summary

Daily Weather History Graph

Daily Weather History Graph

Search for Another Location

Airport or City:

Astronomy

Aug. 05, 2019 Rise Set
Actual Time 6:02 AM CDT 8:37 PM CDT
Civil Twilight 5:28 AM CDT 9:10 PM CDT
Nautical Twilight 4:46 AM CDT 9:53 PM CDT
Astronomical Twilight 3:57 AM CDT 10:41 PM CDT
Moon 11:34 AM CDT (8/5) 11:33 PM CDT (8/5)
Length of Visible Light 15h 42m
Length of Day
14h 34m
Waxing Crescent, 28% of the Moon is Illuminated
Aug 5
Waxing Crescent
Aug 7
First Quarter
Aug 15
Full
Aug 23
Last Quarter
Aug 30
New

Hourly Weather History & Observations

Time (CDT) Temp. Heat Index Dew Point Humidity Pressure Visibility Wind Dir Wind Speed Gust Speed Precip Events Conditions
12:15 AM 69.8 °F - 66.2 °F 88% 29.96 in 10.0 mi Calm Calm - N/A   Clear
12:16 AM 69.8 °F - 66.2 °F 88% 29.96 in 10.0 mi Calm Calm - N/A   Clear
12:35 AM 66.2 °F - 64.4 °F 94% 29.96 in 10.0 mi Calm Calm - N/A   Clear
12:36 AM 66.2 °F - 64.4 °F 94% 29.96 in 10.0 mi Calm Calm - N/A   Clear
12:59 AM 66.2 °F - 64.4 °F 94% 29.95 in 7.0 mi Calm Calm - N/A   Clear
1:17 AM 66.2 °F - 64.4 °F 94% 29.95 in 7.0 mi Calm Calm - N/A   Clear
1:35 AM 64.4 °F - 64.4 °F 100% 29.95 in 2.0 mi Calm Calm - N/A   Clear
1:36 AM 64.4 °F - 64.4 °F 100% 29.95 in 2.5 mi Calm Calm - N/A   Clear
1:55 AM 64.4 °F - 64.4 °F 100% 29.95 in 0.5 mi Calm Calm - N/A Fog Fog
1:56 AM 64.4 °F - 64.4 °F 100% 29.95 in 0.5 mi Calm Calm - N/A Fog Fog
2:15 AM 66.2 °F - 66.2 °F 100% 29.94 in 7.0 mi Calm Calm - N/A   Mostly Cloudy
2:20 AM 66.2 °F - 64.4 °F 94% 29.94 in 7.0 mi Calm Calm - N/A   Mostly Cloudy
2:38 AM 66.2 °F - 66.2 °F 100% 29.94 in 7.0 mi Calm Calm - N/A   Scattered Clouds
2:56 AM 66.2 °F - 64.4 °F 94% 29.93 in 5.0 mi Calm Calm - N/A   Clear
3:15 AM 66.2 °F - 64.4 °F 94% 29.92 in 7.0 mi Calm Calm - N/A   Clear
3:35 AM 66.2 °F - 64.4 °F 94% 29.92 in 1.0 mi Calm Calm - N/A   Clear
3:36 AM 66.2 °F - 64.4 °F 94% 29.92 in 1.0 mi Calm Calm - N/A   Clear
3:59 AM 66.2 °F - 66.2 °F 100% 29.91 in 5.0 mi Calm Calm - N/A   Clear
4:17 AM 66.2 °F - 64.4 °F 94% 29.91 in 10.0 mi Calm Calm - N/A   Clear
4:35 AM 66.2 °F - 64.4 °F 94% 29.90 in 10.0 mi Calm Calm - N/A   Clear
4:55 AM 66.2 °F - 64.4 °F 94% 29.89 in 7.0 mi Calm Calm - N/A   Clear
5:15 AM 66.2 °F - 64.4 °F 94% 29.89 in 7.0 mi Calm Calm - N/A   Clear
5:20 AM 66.2 °F - 64.4 °F 94% 29.89 in 7.0 mi Calm Calm - N/A   Clear
5:38 AM 66.2 °F - 64.4 °F 94% 29.89 in 7.0 mi Calm Calm - N/A   Clear
5:56 AM 66.2 °F - 64.4 °F 94% 29.89 in 7.0 mi Calm Calm - N/A   Clear
6:15 AM 64.4 °F - 64.4 °F 100% 29.90 in 4.0 mi Calm Calm - N/A   Clear
6:35 AM 66.2 °F - 64.4 °F 94% 29.90 in 5.0 mi Calm Calm - N/A   Clear
6:59 AM 66.2 °F - 66.2 °F 100% 29.88 in 5.0 mi Calm Calm - N/A   Clear
7:17 AM 68.0 °F - 66.2 °F 94% 29.88 in 4.0 mi SSE 3.5 mph - N/A   Clear
7:35 AM 69.8 °F - 69.8 °F 100% 29.89 in 4.0 mi SSE 3.5 mph - N/A   Clear
7:55 AM 71.6 °F - 69.8 °F 94% 29.88 in 4.0 mi Calm Calm - N/A   Clear
8:15 AM 71.6 °F - 69.8 °F 94% 29.88 in 4.0 mi Calm Calm - N/A   Clear
8:38 AM 71.6 °F - 69.8 °F 94% 29.88 in 4.0 mi Calm Calm - N/A Thunderstorm Clear
8:56 AM 71.6 °F - 69.8 °F 94% 29.91 in 3.0 mi West 5.8 mph - N/A Rain , Thunderstorm Light Thunderstorms and Rain
9:15 AM 71.6 °F - 69.8 °F 94% 29.91 in 3.0 mi Calm Calm - N/A Rain , Thunderstorm Light Thunderstorms and Rain
9:35 AM 71.6 °F - 69.8 °F 94% 29.91 in 3.0 mi NW 8.1 mph - N/A Thunderstorm Mostly Cloudy
9:59 AM 71.6 °F - 69.8 °F 94% 29.88 in 10.0 mi East 3.5 mph - N/A Thunderstorm Overcast
10:17 AM 73.4 °F - 69.8 °F 88% 29.88 in 10.0 mi Calm Calm - N/A   Scattered Clouds
10:35 AM 73.4 °F - 68.0 °F 83% 29.87 in 10.0 mi East 4.6 mph - N/A   Clear
10:55 AM 75.2 °F - 68.0 °F 78% 29.86 in 10.0 mi SE 3.5 mph - N/A   Clear
11:15 AM 78.8 °F - 69.8 °F 74% 29.86 in 10.0 mi ESE 4.6 mph - N/A   Clear
11:19 AM 78.8 °F - 69.8 °F 74% 29.86 in 10.0 mi South 4.6 mph - N/A   Clear
11:38 AM 80.6 °F 83.9 °F 69.8 °F 70% 29.86 in 10.0 mi Calm Calm - N/A   Clear
11:56 AM 80.6 °F 83.9 °F 69.8 °F 70% 29.85 in 10.0 mi Calm Calm - N/A   Clear
12:15 PM 80.6 °F 83.9 °F 69.8 °F 70% 29.85 in 10.0 mi Calm Calm - N/A   Clear
12:16 PM 80.6 °F 83.9 °F 69.8 °F 70% 29.85 in 10.0 mi Calm Calm - N/A   Clear
12:35 PM 84.2 °F 88.4 °F 69.8 °F 62% 29.84 in 10.0 mi Calm Calm - N/A   Clear
12:36 PM 82.4 °F 86.3 °F 69.8 °F 66% 29.84 in 10.0 mi SW 3.5 mph - N/A   Clear
12:59 PM 82.4 °F 86.3 °F 69.8 °F 66% 29.84 in 10.0 mi Calm Calm - N/A   Clear
1:17 PM 82.4 °F 86.3 °F 69.8 °F 66% 29.82 in 10.0 mi SW 3.5 mph - N/A   Clear
1:35 PM 84.2 °F 88.4 °F 69.8 °F 62% 29.81 in 10.0 mi WSW 3.5 mph - N/A   Clear
1:55 PM 84.2 °F 88.4 °F 69.8 °F 62% 29.82 in 10.0 mi Calm Calm - N/A   Clear
2:15 PM 84.2 °F 88.4 °F 69.8 °F 62% 29.82 in 10.0 mi West 6.9 mph - N/A   Scattered Clouds
2:19 PM 82.4 °F 86.3 °F 69.8 °F 66% 29.82 in 10.0 mi West 9.2 mph - N/A   Scattered Clouds
2:38 PM 86.0 °F 90.4 °F 69.8 °F 58% 29.82 in 10.0 mi West 9.2 mph - N/A   Scattered Clouds
2:56 PM 82.4 °F 85.4 °F 68.0 °F 62% 29.81 in 10.0 mi NW 9.2 mph - N/A   Scattered Clouds
3:15 PM 82.4 °F 86.3 °F 69.8 °F 66% 29.81 in 10.0 mi NNW 8.1 mph - N/A Thunderstorm Thunderstorm
3:35 PM 82.4 °F 84.6 °F 66.2 °F 58% 29.81 in 10.0 mi NW 8.1 mph - N/A   Scattered Clouds
3:36 PM 82.4 °F 85.4 °F 68.0 °F 62% 29.81 in 10.0 mi NW 9.2 mph - N/A   Scattered Clouds
3:59 PM 84.2 °F 86.6 °F 66.2 °F 55% 29.81 in 10.0 mi WNW 11.5 mph 16.1 mph N/A   Clear
4:17 PM 84.2 °F 86.6 °F 66.2 °F 55% 29.82 in 10.0 mi NNW 10.4 mph - N/A Thunderstorm Clear
4:35 PM 84.2 °F 86.6 °F 66.2 °F 55% 29.80 in 10.0 mi NW 13.8 mph - N/A   Clear
4:36 PM 84.2 °F 86.6 °F 66.2 °F 55% 29.80 in 10.0 mi NW 13.8 mph 18.4 mph N/A   Clear
4:55 PM 82.4 °F 83.9 °F 64.4 °F 54% 29.80 in 10.0 mi NW 13.8 mph 20.7 mph N/A   Clear
4:56 PM 82.4 °F 83.9 °F 64.4 °F 54% 29.80 in 10.0 mi NW 15.0 mph 20.7 mph N/A   Clear
5:15 PM 82.4 °F 83.4 °F 62.6 °F 51% 29.81 in 10.0 mi NW 11.5 mph - N/A   Clear
5:38 PM 82.4 °F 83.4 °F 62.6 °F 51% 29.81 in 10.0 mi NNW 11.5 mph - N/A   Clear
5:55 PM 82.4 °F 83.4 °F 62.6 °F 51% 29.81 in 10.0 mi NW 8.1 mph - N/A   Clear
6:15 PM 80.6 °F 81.8 °F 62.6 °F 54% 29.80 in 10.0 mi NNW 10.4 mph 17.3 mph N/A   Clear
6:35 PM 80.6 °F 81.8 °F 62.6 °F 54% 29.79 in 10.0 mi NNW 11.5 mph - N/A   Clear
6:59 PM 80.6 °F 81.8 °F 62.6 °F 54% 29.79 in 10.0 mi NW 8.1 mph - N/A   Clear
7:17 PM 78.8 °F - 64.4 °F 61% 29.80 in 10.0 mi NNW 6.9 mph - N/A   Clear
7:35 PM 78.8 °F - 64.4 °F 61% 29.81 in 10.0 mi NNW 6.9 mph - N/A   Clear
7:55 PM 77.0 °F - 64.4 °F 65% 29.81 in 10.0 mi NW 4.6 mph - N/A   Clear
8:15 PM 75.2 °F - 64.4 °F 69% 29.81 in 10.0 mi Calm Calm - N/A   Clear
8:38 PM 73.4 °F - 64.4 °F 73% 29.82 in 10.0 mi Calm Calm - N/A   Clear
8:56 PM 71.6 °F - 64.4 °F 78% 29.84 in 10.0 mi Calm Calm - N/A   Scattered Clouds
9:15 PM 71.6 °F - 64.4 °F 78% 29.85 in 10.0 mi Calm Calm - N/A   Scattered Clouds
9:35 PM 69.8 °F - 64.4 °F 83% 29.85 in 10.0 mi Calm Calm - N/A   Mostly Cloudy
9:59 PM 69.8 °F - 64.4 °F 83% 29.86 in 10.0 mi Calm Calm - N/A   Scattered Clouds
10:17 PM 69.8 °F - 64.4 °F 83% 29.86 in 10.0 mi West 3.5 mph - N/A   Mostly Cloudy
10:35 PM 69.8 °F - 64.4 °F 83% 29.86 in 10.0 mi WNW 3.5 mph - N/A   Scattered Clouds
10:36 PM 69.8 °F - 64.4 °F 83% 29.86 in 10.0 mi WNW 3.5 mph - N/A   Scattered Clouds
10:55 PM 68.0 °F - 64.4 °F 88% 29.86 in 10.0 mi WNW 4.6 mph - N/A   Clear
11:15 PM 66.2 °F - 62.6 °F 88% 29.86 in 10.0 mi WNW 4.6 mph - N/A   Clear
11:38 PM 66.2 °F - 62.6 °F 88% 29.86 in 10.0 mi West 3.5 mph - N/A   Clear
11:56 PM 66.2 °F - 62.6 °F 88% 29.86 in 10.0 mi WNW 3.5 mph - N/A   Clear